This demonstration page uses our WeatherBlox Daily Observations layout. Learn more.

Left ArrowRight Arrow

39.51506, -84.39828

Hourly Observations for April 25, 2016

Temp ( °F °C ) Dew Point ( °F °C ) Humidity (%) Winds ( mph kmh ) Pressure ( in mb ) Visibility ( mi km ) Precip ( " mm )
12:15 am 00:15 Clear 55 12.5 45 7.2 70 70 undefined N/A 29.97 1015 10 16 N/A
12:35 am 00:35 Clear 55 12.5 45 7.4 71 71 undefined N/A 29.97 1015 10 16 N/A
12:55 am 00:55 Clear 55 12.5 46 7.5 72 72 undefined N/A 29.97 1015 10 16 N/A
1:15 am 01:15 Clear 51 10.8 44 6.5 75 75 undefined N/A 29.97 1015 10 16 N/A
1:35 am 01:35 Clear 51 10.3 44 6.6 78 78 undefined N/A 29.94 1014 10 16 N/A
1:55 am 01:55 Clear 52 11 45 7.1 77 77 undefined N/A 29.94 1014 10 16 N/A
2:15 am 02:15 Clear 52 11 46 7.5 79 79 undefined N/A 29.94 1014 10 16 N/A
2:35 am 02:35 Clear 51 10.5 44 6.8 78 78 undefined N/A 29.94 1014 10 16 N/A
2:55 am 02:55 Clear 50 9.8 43 5.9 77 77 undefined N/A 29.94 1014 10 16 N/A
3:15 am 03:15 Clear 50 10.2 44 6.8 80 80 N N/A 29.94 1014 10 16 N/A
3:35 am 03:35 Clear 50 10.1 44 6.6 79 79 undefined N/A 29.94 1014 10 16 N/A
3:55 am 03:55 Clear 49 9.6 43 6 78 78 N N/A 29.94 1014 10 16 N/A
4:15 am 04:15 Clear 49 9.6 43 6.1 79 79 undefined N/A 29.94 1014 10 16 N/A
4:35 am 04:35 Clear 49 9.6 43 6.2 80 80 undefined N/A 29.94 1014 10 16 N/A
4:55 am 04:55 Clear 49 9.6 43 6.1 79 79 N N/A 29.94 1014 10 16 N/A
5:15 am 05:15 Clear 49 9.6 43 6.1 79 79 undefined N/A 29.94 1014 10 16 N/A
5:35 am 05:35 Clear 49 9.6 43 6.2 80 80 undefined N/A 29.94 1014 10 16 N/A
5:55 am 05:55 Clear 49 9.6 43 6.3 80 80 undefined N/A 29.94 1014 10 16 N/A
6:15 am 06:15 Clear 49 9.6 44 6.5 81 81 undefined N/A 29.94 1014 10 16 N/A
6:35 am 06:35 Clear 49 9.6 44 6.5 81 81 N N/A 29.94 1014 10 16 N/A
6:55 am 06:55 Sunny 49 9.6 44 6.5 81 81 undefined N/A 29.94 1014 10 16 N/A
7:15 am 07:15 Sunny 49 9.6 44 6.5 81 81 undefined N/A 29.94 1014 7 11 N/A
7:35 am 07:35 Sunny 49 9.6 44 6.5 81 81 undefined N/A 29.94 1014 10 16 N/A
7:55 am 07:55 Sunny 54 12 48 8.7 80 80 N N/A 29.94 1014 7 11 N/A
8:15 am 08:15 Partly Cloudy 55 12.5 48 9 79 79 N N/A 29.97 1015 10 16 N/A
8:35 am 08:35 Partly Cloudy 57 13.8 50 9.9 78 78 N N/A 29.94 1014 10 16 N/A
8:55 am 08:55 Sunny 60 15.3 48 9 66 66 undefined N/A 29.91 1013 10 16 N/A
9:15 am 09:15 Sunny 62 16.6 47 8.2 58 58 WSW 3 6 29.91 1013 10 16 N/A
9:35 am 09:35 Mostly Cloudy 62 16.8 47 8.2 57 57 undefined N/A 29.91 1013 10 16 N/A
9:55 am 09:55 Partly Cloudy 67 19.2 47 8.6 50 50 undefined N/A 29.91 1013 7 11 N/A
10:15 am 10:15 Partly Cloudy 69 20.8 49 9.7 49 49 undefined N/A 29.91 1013 10 16 N/A
10:35 am 10:35 Partly Cloudy 70 21 49 9.2 47 47 undefined N/A 29.91 1013 10 16 N/A
10:55 am 10:55 Partly Cloudy 74 23.6 51 10.7 44 44 undefined N/A 29.88 1012 10 16 N/A
11:15 am 11:15 Sunny 74 23.6 49 9.4 41 41 undefined N/A 29.88 1012 10 16 N/A
11:35 am 11:35 Sunny 74 23.6 48 9 40 40 undefined N/A 29.88 1012 10 16 N/A
11:55 am 11:55 Partly Cloudy 77 25.1 49 9.3 37 37 undefined N/A 29.88 1012 10 16 N/A
12:15 pm 12:15 Partly Cloudy 77 25.1 48 8.9 36 36 WSW 14 22 29.88 1012 10 16 N/A
12:35 pm 12:35 Partly Cloudy 80 26.5 47 8.5 32 32 WSW 13 20 29.88 1012 10 16 N/A
12:55 pm 12:55 Cloudy 77 25.1 45 7 31 31 undefined N/A 29.88 1012 10 16 N/A
1:15 pm 13:15 Mostly Cloudy 80 26.5 47 8.2 31 31 undefined N/A 29.88 1012 10 16 N/A
1:35 pm 13:35 Partly Cloudy 80 26.5 44 6.6 28 28 WSW 17 28 29.88 1012 10 16 N/A
1:55 pm 13:55 Mostly Cloudy 77 25.1 44 6.9 31 31 WSW 15 24 29.85 1011 10 16 N/A
2:15 pm 14:15 Mostly Cloudy 80 26.5 43 6.1 27 27 WSW 14 22 29.85 1011 10 16 N/A
2:35 pm 14:35 Partly Cloudy 80 26.5 43 5.9 27 27 WSW 16 26 29.85 1011 10 16 N/A
2:55 pm 14:55 Partly Cloudy 80 26.7 42 5.5 26 26 undefined N/A 29.80 1009 10 16 N/A
3:15 pm 15:15 Partly Cloudy 81 27.2 40 4.3 23 23 undefined N/A 29.80 1009 10 16 N/A
3:35 pm 15:35 Partly Cloudy 81 27.2 42 5.3 25 25 undefined N/A 29.80 1009 10 16 N/A
3:55 pm 15:55 Partly Cloudy 80 26.7 41 5 25 25 undefined N/A 29.80 1009 10 16 N/A
4:15 pm 16:15 Partly Cloudy 81 27.2 43 6.1 26 26 undefined N/A 29.80 1009 10 16 N/A
4:35 pm 16:35 Partly Cloudy 80 26.5 42 5.7 26 26 undefined N/A 29.80 1009 10 16 N/A
4:55 pm 16:55 Partly Cloudy 81 27.2 39 4 23 23 WSW 17 28 29.80 1009 10 16 N/A
5:15 pm 17:15 Sunny 82 27.6 38 3.4 21 21 undefined N/A 29.77 1008 10 16 N/A
5:35 pm 17:35 Sunny 81 27.2 38 3.1 21 21 undefined N/A 29.77 1008 10 16 N/A
5:55 pm 17:55 Partly Cloudy 81 27 38 3.3 22 22 undefined N/A 29.77 1008 10 16 N/A
6:15 pm 18:15 Partly Cloudy 81 27.2 37 2.7 21 21 undefined N/A 29.77 1008 10 16 N/A
6:35 pm 18:35 Partly Cloudy 81 27.2 37 2.8 21 21 undefined N/A 29.77 1008 10 16 N/A
6:55 pm 18:55 Partly Cloudy 80 26.5 38 3.3 22 22 undefined N/A 29.77 1008 10 16 N/A
7:15 pm 19:15 Partly Cloudy 80 26.5 37 2.6 21 21 undefined N/A 29.77 1008 10 16 N/A
7:35 pm 19:35 Sunny 80 26.5 37 2.7 21 21 WSW 15 24 29.77 1008 10 16 N/A
7:55 pm 19:55 Sunny 77 25.1 38 3.4 24 24 SW 9 15 29.80 1009 10 16 N/A
8:15 pm 20:15 Sunny 75 24.1 40 4.5 28 28 undefined N/A 29.80 1009 10 16 N/A
8:35 pm 20:35 Mostly Cloudy 74 23.6 42 5.4 31 31 SW 9 15 29.80 1009 10 16 N/A
8:55 pm 20:55 Partly Cloudy 74 23.6 44 6.7 34 34 SW 7 11 29.80 1009 10 16 N/A
9:15 pm 21:15 Clear 71 21.9 44 6.8 38 38 SW 7 11 29.80 1009 10 16 N/A
9:35 pm 21:35 Clear 71 21.5 44 6.5 38 38 SW 7 11 29.80 1009 10 16 N/A
9:55 pm 21:55 Clear 69 20.8 47 8.1 44 44 SW 3 6 29.80 1009 10 16 N/A
10:15 pm 22:15 Clear 65 18.2 49 9.4 57 57 SW 3 6 29.80 1009 10 16 N/A
10:35 pm 22:35 Clear 64 18 50 9.9 59 59 WSW 3 6 29.80 1009 10 16 N/A
10:55 pm 22:55 Clear 62 16.9 48 9 60 60 SW 5 7 29.80 1009 10 16 N/A
11:15 pm 23:15 Clear 62 16.6 50 10.1 66 66 WSW 5 7 29.80 1009 10 16 N/A
11:35 pm 23:35 Clear 62 16.6 50 9.8 64 64 WSW 6 9 29.80 1009 10 16 N/A
11:55 pm 23:55 Clear 63 17.4 48 9 58 58 WSW 6 9 29.80 1009 10 16 N/A

Powered by AerisWeather